DW6344 Weather Reports


Display with metric or nautical units.
time (UTC)temp
F
wind
direction
speed
MPH
gust
MPH
rain 1hr
in
rain 24hr
in
rain mn
in
humidity
%
barometer
mb
20260510133839 73 341 0.0 2.0 0.00 0.00 0.00 61 1011.9
20260510133347 72 341 0.0 2.0 0.00 0.00 0.00 61 1011.8
20260510132828 72 222 0.0 3.0 0.00 0.00 0.00 64 1012.0
20260510132344 71 236 1.0 3.0 0.00 0.00 0.00 67 1011.8
20260510131837 70 98 0.0 2.0 0.00 0.00 0.00 71 1011.8
20260510131334 69 98 1.0 2.0 0.00 0.00 0.00 73 1011.7
20260510130834 68 98 0.0 2.0 0.00 0.00 0.00 75 1011.8
20260510130332 68 107 0.0 2.0 0.00 0.00 0.00 77 1011.9
20260510125831 67 107 0.0 1.0 0.00 0.00 0.00 80 1011.9
20260510125327 66 107 0.0 1.0 0.00 0.00 0.00 82 1011.8
20260510124908 65 107 0.0 1.0 0.00 0.00 0.00 84 1011.7
20260510124327 64 107 0.0 1.0 0.00 0.00 0.00 87 1011.7
20260510123907 64 107 0.0 1.0 0.00 0.00 0.00 89 1011.8
20260510123329 63 107 0.0 1.0 0.00 0.00 0.00 90 1011.8
20260510122835 63 107 0.0 1.0 0.00 0.00 0.00 90 1011.7
20260510122359 62 107 0.0 0.0 0.00 0.00 0.00 90 1011.7
20260510121829 61 107 0.0 0.0 0.00 0.00 0.00 90 1011.6
20260510121403 61 107 0.0 0.0 0.00 0.00 0.00 90 1011.5
20260510120842 60 107 0.0 0.0 0.00 0.00 0.00 90 1011.5
20260510120348 60 105 0.0 0.0 0.00 0.00 0.00 90 1011.2
20260510115851 59 105 0.0 0.0 0.00 0.00 0.00 90 1011.2
20260510115346 59 105 0.0 0.0 0.00 0.00 0.00 89 1011.0
20260510114854 59 105 0.0 0.0 0.00 0.00 0.00 90 1011.0
20260510114332 58 105 0.0 0.0 0.00 0.00 0.00 89 1011.1
20260510113845 58 105 0.0 0.0 0.00 0.00 0.00 90 1011.0
20260510113408 58 105 0.0 0.0 0.00 0.00 0.00 89 1011.0
20260510112856 57 105 0.0 0.0 0.00 0.00 0.00 89 1011.0
20260510112358 57 105 0.0 0.0 0.00 0.00 0.00 89 1010.9
20260510111900 57 105 0.0 0.0 0.00 0.00 0.00 89 1010.8
20260510111337 57 105 0.0 0.0 0.00 0.00 0.00 89 1010.7
20260510110828 56 105 0.0 0.0 0.00 0.00 0.00 89 1010.6
20260510110335 56 105 0.0 0.0 0.00 0.00 0.00 89 1010.5
20260510105829 56 105 0.0 1.0 0.00 0.00 0.00 89 1010.4
20260510105333 56 105 0.0 1.0 0.00 0.00 0.00 89 1010.5
20260510104840 55 105 0.0 0.0 0.00 0.00 0.00 88 1010.2
20260510104329 55 105 0.0 1.0 0.00 0.00 0.00 88 1010.1
20260510103919 55 105 0.0 1.0 0.00 0.00 0.00 88 1010.1
20260510103401 55 106 0.0 0.0 0.00 0.00 0.00 88 1010.1
20260510102837 55 106 0.0 0.0 0.00 0.00 0.00 88 1010.0
20260510102347 55 106 0.0 0.0 0.00 0.00 0.00 88 1010.0
20260510101847 55 106 0.0 0.0 0.00 0.00 0.00 88 1010.0
20260510101328 55 106 0.0 0.0 0.00 0.00 0.00 88 1009.9
20260510100827 55 106 0.0 0.0 0.00 0.00 0.00 88 1009.7
20260510100335 56 106 0.0 0.0 0.00 0.00 0.00 88 1009.6
20260510095831 56 106 0.0 0.0 0.00 0.00 0.00 88 1009.7
20260510095332 56 106 0.0 0.0 0.00 0.00 0.00 88 1009.5
20260510094842 56 106 0.0 0.0 0.00 0.00 0.00 88 1009.5
20260510094343 56 106 0.0 0.0 0.00 0.00 0.00 88 1009.4
20260510093851 56 106 0.0 0.0 0.00 0.00 0.00 88 1009.2
20260510093341 56 106 0.0 0.0 0.00 0.00 0.00 88 1009.3
20260510092837 56 106 0.0 0.0 0.00 0.00 0.00 88 1009.2
20260510092337 56 106 0.0 0.0 0.00 0.00 0.00 88 1009.2
20260510091845 56 106 0.0 0.0 0.00 0.00 0.00 88 1009.1
20260510091346 57 106 0.0 0.0 0.00 0.00 0.00 88 1009.2
20260510090832 57 106 0.0 0.0 0.00 0.00 0.00 88 1009.1
20260510090335 57 106 0.0 0.0 0.00 0.00 0.00 88 1009.0
20260510085836 57 106 0.0 0.0 0.00 0.00 0.00 88 1008.9
20260510085328 57 106 0.0 0.0 0.00 0.00 0.00 88 1009.0
20260510084916 57 106 0.0 0.0 0.00 0.00 0.00 88 1008.9
20260510084351 57 106 0.0 0.0 0.00 0.00 0.00 88 1009.0
20260510083851 57 106 0.0 0.0 0.00 0.00 0.00 88 1008.9
20260510083334 57 106 0.0 0.0 0.00 0.00 0.00 88 1008.9
20260510082836 58 106 0.0 0.0 0.00 0.00 0.00 88 1008.7
20260510082348 58 106 0.0 0.0 0.00 0.00 0.00 88 1008.7
20260510081844 58 106 0.0 0.0 0.00 0.00 0.00 88 1008.7
20260510081346 58 106 0.0 0.0 0.00 0.00 0.00 88 1008.8
20260510080830 58 106 0.0 0.0 0.00 0.00 0.00 88 1008.8
20260510080406 58 106 0.0 0.0 0.00 0.00 0.00 88 1008.7
20260510075827 58 106 0.0 0.0 0.00 0.00 0.00 87 1008.7
20260510075331 58 106 0.0 0.0 0.00 0.00 0.00 87 1008.7
20260510074834 58 106 0.0 0.0 0.00 0.00 0.00 87 1008.7
20260510074334 58 106 0.0 0.0 0.00 0.00 0.00 88 1008.7
20260510073840 58 106 0.0 0.0 0.00 0.00 0.00 87 1008.7
20260510073342 58 106 0.0 0.0 0.00 0.00 0.00 87 1008.6
20260510072842 58 106 0.0 0.0 0.00 0.00 0.00 87 1008.5
20260510072353 58 106 0.0 0.0 0.00 0.00 0.00 87 1008.5
20260510071853 58 106 0.0 0.0 0.00 0.00 0.00 87 1008.4
20260510071350 58 106 0.0 0.0 0.00 0.00 0.00 87 1008.5
20260510070857 58 106 0.0 0.0 0.00 0.00 0.00 87 1008.6
20260510070340 58 106 0.0 0.0 0.00 0.00 0.00 87 1008.5
20260510065847 58 106 0.0 0.0 0.00 0.00 0.00 87 1008.6
20260510065332 58 106 0.0 0.0 0.00 0.00 0.00 87 1008.6
20260510064852 59 106 0.0 1.0 0.00 0.00 0.00 87 1008.6
20260510064343 59 106 0.0 0.0 0.00 0.00 0.00 87 1008.5
20260510063854 59 106 0.0 0.0 0.00 0.00 0.00 86 1008.4
20260510063354 59 106 0.0 0.0 0.00 0.00 0.00 86 1008.5
20260510062855 59 106 0.0 0.0 0.00 0.00 0.00 86 1008.5
20260510062332 59 106 0.0 0.0 0.00 0.00 0.00 86 1008.6
20260510061842 59 106 0.0 0.0 0.00 0.00 0.00 86 1008.7
20260510061413 59 106 0.0 0.0 0.00 0.00 0.00 86 1008.8
20260510060859 59 106 0.0 0.0 0.00 0.00 0.00 86 1008.8
20260510060330 59 106 0.0 0.0 0.00 0.00 0.00 86 1008.9
20260510055842 59 106 0.0 0.0 0.00 0.00 0.00 85 1008.8
20260510055351 59 106 0.0 0.0 0.00 0.00 0.00 85 1008.8
20260510054835 59 106 0.0 0.0 0.00 0.00 0.00 85 1008.9
20260510054332 59 106 0.0 0.0 0.00 0.00 0.00 85 1008.9
20260510053835 59 106 0.0 0.0 0.00 0.00 0.00 84 1008.9
20260510053334 60 106 0.0 0.0 0.00 0.00 0.00 84 1009.0
20260510052838 60 106 0.0 0.0 0.00 0.00 0.00 84 1009.0
20260510052338 60 106 0.0 0.0 0.00 0.00 0.00 84 1009.0
20260510051850 60 106 0.0 0.0 0.00 0.00 0.00 84 1009.0
20260510051324 60 106 0.0 0.0 0.00 0.00 0.00 83 1009.0
20260510050835 60 106 0.0 0.0 0.00 0.00 0.00 83 1009.0
20260510050406 60 106 0.0 0.0 0.00 0.00 0.00 83 1009.0
20260510045842 60 106 0.0 0.0 0.00 0.00 0.00 83 1009.0
20260510045330 60 106 0.0 0.0 0.00 0.00 0.00 83 1009.0
20260510044854 60 106 0.0 0.0 0.00 0.00 0.00 82 1009.0
20260510044335 61 106 0.0 0.0 0.00 0.00 0.00 82 1009.0
20260510043843 61 106 0.0 0.0 0.00 0.00 0.00 81 1008.9
20260510043326 61 106 0.0 0.0 0.00 0.00 0.00 81 1008.9
20260510042829 61 106 0.0 0.0 0.00 0.00 0.00 80 1009.0
20260510042331 61 106 0.0 0.0 0.00 0.00 0.00 80 1008.8
20260510041847 61 106 0.0 0.0 0.00 0.00 0.00 80 1008.8
20260510041403 62 106 0.0 0.0 0.00 0.00 0.00 80 1008.8
20260510040846 62 106 0.0 0.0 0.00 0.00 0.00 79 1008.7
20260510040329 62 106 0.0 0.0 0.00 0.00 0.00 79 1008.7
20260510035835 62 106 0.0 0.0 0.00 0.00 0.00 79 1008.7
20260510035337 62 106 0.0 0.0 0.00 0.00 0.00 79 1008.7
20260510034906 62 106 0.0 0.0 0.00 0.00 0.00 79 1008.6
20260510034335 62 106 0.0 0.0 0.00 0.00 0.00 78 1008.6
20260510033828 62 106 0.0 0.0 0.00 0.00 0.00 78 1008.7
20260510033333 62 106 0.0 0.0 0.00 0.00 0.00 78 1008.6
20260510032832 62 106 0.0 0.0 0.00 0.00 0.00 78 1008.5
20260510032332 62 106 0.0 0.0 0.00 0.00 0.00 77 1008.5
20260510031907 62 106 0.0 0.0 0.00 0.00 0.00 77 1008.5
20260510031400 62 106 0.0 0.0 0.00 0.00 0.00 77 1008.4
20260510030841 63 106 0.0 1.0 0.00 0.00 0.00 76 1008.4
20260510030343 63 106 0.0 1.0 0.00 0.00 0.00 76 1008.3
20260510025843 63 106 0.0 0.0 0.00 0.00 0.00 76 1008.3
20260510025327 63 106 0.0 0.0 0.00 0.00 0.00 76 1008.3
20260510024835 63 106 0.0 0.0 0.00 0.00 0.00 75 1008.4
20260510024414 63 106 0.0 0.0 0.00 0.00 0.00 75 1008.4
20260510023855 63 106 0.0 0.0 0.00 0.00 0.00 74 1008.3
20260510023352 63 106 0.0 0.0 0.00 0.00 0.00 74 1008.3
20260510022858 64 106 0.0 0.0 0.00 0.00 0.00 74 1008.2
20260510022338 64 106 0.0 0.0 0.00 0.00 0.00 73 1008.1
20260510021838 64 106 0.0 0.0 0.00 0.00 0.00 73 1008.1
20260510021340 64 106 0.0 0.0 0.00 0.00 0.00 73 1008.0
20260510020841 64 106 0.0 0.0 0.00 0.00 0.00 73 1008.0
20260510020338 64 106 0.0 0.0 0.00 0.00 0.00 72 1008.0
20260510015841 64 106 0.0 0.0 0.00 0.00 0.00 71 1007.9
20260510015343 65 106 0.0 0.0 0.00 0.00 0.00 71 1007.9
20260510014844 65 106 0.0 0.0 0.00 0.00 0.00 70 1007.9
20260510014407 65 106 0.0 0.0 0.00 0.00 0.00 70 1007.8
20260510013856 65 106 0.0 0.0 0.00 0.00 0.00 69 1007.8
20260510013338 66 106 0.0 0.0 0.00 0.00 0.00 69 1007.9
20260510012834 66 106 0.0 0.0 0.00 0.00 0.00 68 1007.8
20260510012342 66 106 0.0 0.0 0.00 0.00 0.00 68 1007.8
20260510011826 66 106 0.0 0.0 0.00 0.00 0.00 67 1007.7
20260510011352 67 106 0.0 0.0 0.00 0.00 0.00 67 1007.7
20260510010901 67 106 0.0 0.0 0.00 0.00 0.00 66 1007.6
20260510010404 67 106 0.0 0.0 0.00 0.00 0.00 66 1007.6
20260510005857 67 106 0.0 0.0 0.00 0.00 0.00 65 1007.6
20260510005338 68 106 0.0 0.0 0.00 0.00 0.00 64 1007.6
20260510004839 68 106 0.0 0.0 0.00 0.00 0.00 63 1007.5
20260510004336 68 106 0.0 0.0 0.00 0.00 0.00 63 1007.5
20260510003835 69 106 0.0 0.0 0.00 0.00 0.00 62 1007.3
20260510003342 69 106 0.0 0.0 0.00 0.00 0.00 61 1007.3
20260510002830 70 106 0.0 0.0 0.00 0.00 0.00 62 1007.3
20260510002334 70 106 0.0 0.0 0.00 0.00 0.00 60 1007.3
20260510001910 71 106 0.0 0.0 0.00 0.00 0.00 60 1007.0
20260510001329 71 106 0.0 0.0 0.00 0.00 0.00 58 1006.9
20260510000844 71 106 0.0 0.0 0.00 0.00 0.00 57 1006.9
20260510000341 72 106 0.0 0.0 0.00 0.00 0.00 57 1006.8
20260509235841 72 106 0.0 0.0 0.00 0.00 0.00 55 1006.7
20260509235337 73 106 0.0 2.0 0.00 0.00 0.00 55 1006.6
20260509234904 73 106 0.0 2.0 0.00 0.00 0.00 54 1006.6
20260509234346 74 106 0.0 4.0 0.00 0.00 0.00 53 1006.7
20260509233901 74 106 0.0 4.0 0.00 0.00 0.00 52 1006.6
20260509233347 74 62 0.0 2.0 0.00 0.00 0.00 51 1006.7
20260509232827 75 80 0.0 2.0 0.00 0.00 0.00 52 1006.7
20260509232332 75 83 0.0 2.0 0.00 0.00 0.00 51 1006.7
20260509231833 75 83 0.0 0.0 0.00 0.00 0.00 50 1006.6
20260509231342 76 83 0.0 2.0 0.00 0.00 0.00 49 1006.6
20260509230828 76 83 0.0 5.0 0.00 0.00 0.00 48 1006.5
20260509230332 76 109 0.0 3.0 0.00 0.00 0.00 49 1006.7
20260509225828 75 109 1.0 3.0 0.00 0.00 0.00 47 1006.6
20260509225346 75 18 0.0 1.0 0.00 0.00 0.00 47 1006.6
20260509224830 76 18 0.0 3.0 0.00 0.00 0.00 48 1006.7
20260509224336 76 18 1.0 3.0 0.00 0.00 0.00 46 1006.7
20260509223830 76 75 1.0 4.0 0.00 0.00 0.00 46 1006.6
20260509223333 76 106 1.0 4.0 0.00 0.00 0.00 46 1006.4
20260509222834 77 90 1.0 2.0 0.00 0.00 0.00 45 1006.4
20260509222341 77 330 0.0 2.0 0.00 0.00 0.00 45 1006.4
20260509221900 77 331 0.0 3.0 0.00 0.00 0.00 44 1006.4
20260509221328 77 308 0.0 3.0 0.00 0.00 0.00 44 1006.5
20260509220903 77 13 1.0 3.0 0.00 0.00 0.00 43 1006.3
20260509220329 77 65 0.0 2.0 0.00 0.00 0.00 44 1006.3
20260509215832 77 71 1.0 2.0 0.00 0.00 0.00 45 1006.3
20260509215358 77 70 1.0 2.0 0.00 0.00 0.00 44 1006.3
20260509214917 76 71 0.0 2.0 0.00 0.00 0.00 44 1006.3
20260509214355 77 71 1.0 3.0 0.00 0.00 0.00 44 1006.3
20260509213833 77 82 0.0 2.0 0.00 0.00 0.00 42 1006.1
20260509213337 78 115 0.0 2.0 0.00 0.00 0.00 42 1006.1
20260509212853 78 268 0.0 4.0 0.00 0.00 0.00 40 1006.1
20260509212337 79 85 1.0 5.0 0.00 0.00 0.00 41 1006.1
20260509211835 79 261 0.0 5.0 0.00 0.00 0.00 41 1006.2
20260509211358 79 249 2.0 4.0 0.00 0.00 0.00 38 1006.2
20260509210858 80 344 1.0 4.0 0.00 0.00 0.00 38 1006.1
20260509210329 81 64 1.0 2.0 0.00 0.00 0.00 39 1006.3
20260509205847 81 64 0.0 2.0 0.00 0.00 0.00 39 1006.3
20260509205346 81 45 1.0 3.0 0.00 0.00 0.00 37 1006.4
20260509204853 81 345 1.0 5.0 0.00 0.00 0.00 38 1006.3
20260509204334 81 17 1.0 5.0 0.00 0.00 0.00 37 1006.3
20260509203832 81 242 1.0 4.0 0.00 0.00 0.00 35 1006.3
20260509203343 81 157 1.0 4.0 0.00 0.00 0.00 39 1006.3
20260509202855 80 355 1.0 4.0 0.00 0.00 0.00 40 1006.3
20260509202357 80 92 0.0 2.0 0.00 0.00 0.00 38 1006.3
20260509201831 79 96 1.0 2.0 0.00 0.00 0.00 39 1006.4
20260509201342 80 89 0.0 4.0 0.00 0.00 0.00 38 1006.4
20260509200849 81 276 1.0 4.0 0.00 0.00 0.00 35 1006.4
20260509200355 82 155 1.0 4.0 0.00 0.00 0.00 37 1006.4
20260509195858 81 132 2.0 4.0 0.00 0.00 0.00 37 1006.5
20260509195341 81 30 1.0 5.0 0.00 0.00 0.00 38 1006.5
20260509194835 81 11 1.0 5.0 0.00 0.00 0.00 37 1006.6
20260509194333 82 78 1.0 5.0 0.00 0.00 0.00 35 1006.7
20260509193906 82 5 1.0 4.0 0.00 0.00 0.00 36 1006.8
20260509193335 82 216 1.0 4.0 0.00 0.00 0.00 37 1006.9
20260509192832 82 360 1.0 4.0 0.00 0.00 0.00 39 1007.1
20260509192327 81 274 1.0 6.0 0.00 0.00 0.00 37 1007.1
20260509191922 82 161 2.0 6.0 0.00 0.00 0.00 36 1007.2
20260509191352 81 64 1.0 5.0 0.00 0.00 0.00 40 1007.2
20260509190856 80 267 1.0 4.0 0.00 0.00 0.00 41 1007.3
20260509190334 80 5 1.0 5.0 0.00 0.00 0.00 39 1007.3
20260509185851 81 261 1.0 3.0 0.00 0.00 0.00 38 1007.4
20260509185401 81 103 1.0 3.0 0.00 0.00 0.00 38 1007.3
20260509184840 80 242 0.0 3.0 0.00 0.00 0.00 40 1007.3
20260509184334 80 61 1.0 4.0 0.00 0.00 0.00 39 1007.3
20260509183912 80 69 1.0 4.0 0.00 0.00 0.00 41 1007.5
20260509183358 80 68 0.0 3.0 0.00 0.00 0.00 42 1007.5
20260509182905 80 69 1.0 5.0 0.00 0.00 0.00 44 1007.5
20260509182345 80 99 1.0 5.0 0.00 0.00 0.00 40 1007.7
20260509181835 81 23 0.0 5.0 0.00 0.00 0.00 41 1007.7
20260509181328 81 98 1.0 5.0 0.00 0.00 0.00 41 1007.7
20260509180851 80 62 1.0 5.0 0.00 0.00 0.00 41 1007.8
20260509180332 80 292 1.0 3.0 0.00 0.00 0.00 41 1007.9
20260509175844 79 242 2.0 3.0 0.00 0.00 0.00 42 1007.8
20260509175345 79 97 1.0 3.0 0.00 0.00 0.00 41 1007.8
20260509174853 78 317 1.0 4.0 0.00 0.00 0.00 44 1007.7
20260509174353 78 292 1.0 4.0 0.00 0.00 0.00 45 1007.8
20260509173835 77 317 1.0 3.0 0.00 0.00 0.00 44 1007.8
20260509173338 77 279 1.0 3.0 0.00 0.00 0.00 42 1008.0
20260509172833 77 79 1.0 3.0 0.00 0.00 0.00 42 1008.2
20260509172333 77 300 1.0 4.0 0.00 0.00 0.00 44 1008.4
20260509171844 78 355 2.0 4.0 0.00 0.00 0.00 44 1008.5
20260509171402 78 63 2.0 4.0 0.00 0.00 0.00 44 1008.6
20260509170846 78 329 2.0 4.0 0.00 0.00 0.00 45 1008.9
20260509170350 78 30 2.0 3.0 0.00 0.00 0.00 46 1008.9
20260509165832 78 83 1.0 3.0 0.00 0.00 0.00 45 1008.7
20260509165334 77 59 0.0 4.0 0.00 0.00 0.00 47 1008.6
20260509164838 77 71 1.0 3.0 0.00 0.00 0.00 45 1008.6
20260509164335 77 88 1.0 4.0 0.00 0.00 0.00 44 1008.5
20260509163843 78 360 1.0 4.0 0.00 0.00 0.00 45 1008.6
20260509163346 78 213 2.0 5.0 0.00 0.00 0.00 46 1008.4
20260509162830 77 37 0.0 4.0 0.00 0.00 0.00 50 1008.5
20260509162402 76 88 1.0 5.0 0.00 0.00 0.00 47 1008.5
20260509161858 75 67 1.0 5.0 0.00 0.00 0.00 49 1008.7
20260509161353 76 11 2.0 5.0 0.00 0.00 0.00 48 1008.8
20260509160859 76 18 1.0 4.0 0.00 0.00 0.00 52 1008.8
20260509160358 75 344 2.0 4.0 0.00 0.00 0.00 52 1008.9
20260509155836 75 70 1.0 3.0 0.00 0.00 0.00 53 1008.9
20260509155333 74 84 1.0 3.0 0.00 0.00 0.00 52 1009.1
20260509154839 74 142 1.0 6.0 0.00 0.00 0.00 55 1009.1
20260509154327 73 30 2.0 6.0 0.00 0.00 0.00 55 1009.4
20260509153838 73 343 1.0 3.0 0.00 0.00 0.00 57 1009.5
20260509153338 73 320 1.0 3.0 0.00 0.00 0.00 57 1009.5
20260509152839 73 49 0.0 3.0 0.00 0.00 0.00 57 1009.5
20260509152359 72 49 1.0 3.0 0.00 0.00 0.00 56 1009.5
20260509151858 72 86 1.0 3.0 0.00 0.00 0.00 58 1009.6
20260509151404 71 86 0.0 3.0 0.00 0.00 0.00 59 1009.8
20260509150845 71 91 1.0 5.0 0.00 0.00 0.00 58 1010.2
20260509150343 71 94 1.0 5.0 0.00 0.00 0.00 58 1010.5
20260509145841 72 132 0.0 3.0 0.00 0.00 0.00 59 1010.5
20260509145342 71 159 1.0 3.0 0.00 0.00 0.00 60 1010.5
20260509144829 71 106 0.0 5.0 0.00 0.00 0.00 60 1010.5
20260509144335 71 126 1.0 5.0 0.00 0.00 0.00 61 1010.6
20260509143840 71 15 0.0 3.0 0.00 0.00 0.00 62 1010.6
20260509143407 71 84 0.0 2.0 0.00 0.00 0.00 64 1010.6
20260509142845 71 340 0.0 2.0 0.00 0.00 0.00 62 1010.6
20260509142342 71 340 0.0 2.0 0.00 0.00 0.00 62 1010.6
20260509141846 70 340 1.0 2.0 0.00 0.00 0.00 62 1010.7
20260509141359 69 340 0.0 2.0 0.00 0.00 0.00 64 1010.8
20260509140850 69 340 1.0 2.0 0.00 0.00 0.00 65 1010.9
20260509140349 69 55 0.0 2.0 0.00 0.00 0.00 65 1010.9
20260509135850 68 56 0.0 2.0 0.00 0.00 0.00 66 1011.0
20260509135326 68 56 0.0 1.0 0.00 0.00 0.00 66 1011.0
20260509134834 68 56 0.0 2.0 0.00 0.00 0.00 67 1010.9
20260509134338 68 53 0.0 3.0 0.00 0.00 0.00 67 1011.0